Wind_Speed
19 18 18 17 17 16 16 15 15 15 15 16 17 17 17 18 18 19 19 18 18 17 17 18 19 21 22 24 23 22 21 21 27 30 25 19 16 18 18 18 20 21 24 24 22 22 24 25 25 24 23 23 23 22 22 22 22 21 21 21 20 21 21 20 20 20 20 20 20 20 20 20 20 20 21 21 21 22 23 24 24 26 27 28 29 30 31 31
18 18 17 16 16 16 16 15 15 15 16 17 17 17 17 17 18 18 19 19 18 18 19 19 20 22 23 23 22 23 21 23 31 28 19 17 17 19 19 20 21 21 23 23 21 23 25 25 24 23 23 24 23 22 22 22 22 22 21 22 21 22 22 21 21 21 21 22 22 22 22 22 22 23 23 23 24 25 26 26 27 29 30 31 32 33 33 34
19 18 18 18 17 17 17 16 16 15 16 17 17 17 16 17 17 18 19 19 20 20 21 21 21 22 23 23 22 23 22 25 30 23 17 17 18 19 21 20 20 21 22 22 22 24 25 24 23 22 23 25 23 22 22 22 22 22 22 22 21 21 21 21 21 21 21 22 22 23 23 23 24 24 24 25 26 27 27 28 30 31 32 34 35 36 36 37
20 20 19 19 18 18 17 16 16 15 16 16 15 15 16 16 16 17 18 19 21 21 22 22 22 22 23 22 21 21 23 26 25 19 18 18 18 20 21 20 20 20 21 22 23 25 25 24 23 22 25 24 21 21 22 22 22 22 22 21 21 21 21 21 20 21 21 21 22 23 23 23 24 25 25 26 27 28 29 30 31 33 34 35 36 37 37 38
21 20 20 19 19 18 18 17 16 16 15 15 15 15 15 16 16 17 18 19 20 20 20 22 21 21 22 20 19 22 25 24 21 19 19 18 18 20 21 21 20 20 21 23 23 23 24 24 23 24 25 22 21 23 23 23 22 22 23 21 21 21 22 21 21 21 22 22 22 23 24 23 25 26 26 27 28 29 30 31 32 33 35 35 36 37 37 38
21 20 20 20 19 19 19 18 17 16 16 16 16 16 16 16 17 17 18 19 19 19 19 20 21 20 21 18 16 22 23 20 20 20 19 18 18 20 21 21 21 21 21 22 22 22 23 24 24 24 23 22 23 24 23 23 22 22 23 22 22 21 22 22 21 22 23 23 23 25 26 25 26 27 27 28 29 30 31 33 34 35 36 37 37 38 38 39
21 21 21 21 21 20 20 19 19 18 17 17 17 17 17 17 17 18 18 19 19 19 18 20 22 20 20 17 14 21 23 20 20 20 18 18 18 19 21 21 21 20 20 20 21 22 23 24 24 23 23 24 25 23 22 23 23 23 23 22 23 22 23 24 23 24 25 26 25 27 28 27 28 29 30 31 31 33 34 35 36 38 38 39 39 40 41 41
22 22 21 21 21 21 21 21 20 20 20 19 18 18 17 17 18 18 18 18 18 18 18 20 22 20 18 15 14 21 23 20 20 19 18 17 18 19 20 21 20 18 18 19 21 23 24 24 23 23 25 25 23 23 23 24 24 24 23 23 23 23 23 25 25 25 26 27 27 28 29 30 31 31 32 33 34 35 37 38 39 40 40 41 41 42 42 42
22 22 21 22 22 22 22 22 22 22 22 22 21 19 18 18 18 18 18 18 18 18 18 20 22 19 14 14 18 21 21 19 20 19 17 18 17 17 19 20 18 17 18 19 21 24 25 24 23 24 25 23 22 23 24 25 25 24 23 23 23 24 24 24 25 26 27 28 28 29 30 31 31 32 33 34 35 36 38 39 39 40 40 40 41 41 41 40
22 22 22 22 22 23 23 23 23 23 23 24 23 21 20 19 19 19 18 18 18 18 19 20 22 19 13 15 20 20 20 19 19 18 17 16 15 16 19 18 17 18 18 20 23 25 25 24 22 23 23 22 22 23 25 26 25 24 23 23 24 24 24 24 25 25 27 27 28 29 30 31 31 32 34 34 36 37 38 38 39 39 40 40 41 40 39 37
22 22 22 22 22 23 23 23 23 23 23 24 24 23 21 20 19 19 19 18 18 18 19 20 22 20 13 15 20 19 19 18 17 18 15 14 15 17 19 17 18 19 19 21 24 24 24 23 21 22 23 22 23 24 25 25 24 24 24 24 25 24 24 24 25 26 27 28 28 30 31 32 32 33 34 35 36 37 38 39 39 40 40 40 40 39 37 35
22 22 21 22 21 21 21 21 21 21 22 23 23 22 21 20 20 20 19 19 18 19 20 20 21 18 12 15 21 19 18 17 17 17 14 14 17 19 18 18 18 19 21 23 24 23 22 22 20 21 23 23 24 24 25 25 24 24 24 25 24 24 24 25 26 27 28 29 30 31 32 33 34 34 35 36 37 38 39 39 40 40 41 41 40 38 35 34
21 21 20 20 20 20 20 20 20 20 20 21 21 21 21 20 21 21 20 20 20 20 20 19 18 15 14 19 21 18 17 17 16 17 15 16 18 18 18 18 19 20 21 22 22 22 21 20 19 21 24 23 23 24 24 24 23 23 24 23 23 25 26 27 29 29 30 30 31 31 32 33 34 35 36 36 37 38 39 39 40 41 41 40 39 37 34 33
21 20 20 19 19 19 19 19 19 19 19 20 20 21 20 19 20 21 22 21 21 20 18 18 17 16 19 21 19 17 18 17 17 17 16 17 18 18 18 19 19 20 21 21 20 19 19 18 19 22 23 22 24 24 23 23 22 24 25 25 27 29 29 30 30 30 31 31 32 32 33 34 35 35 36 37 38 38 39 40 41 41 41 40 38 36 34 31
20 20 19 19 19 18 18 19 19 19 19 19 19 20 20 18 19 21 23 22 22 21 18 18 18 17 21 20 17 19 18 17 17 16 16 17 18 18 19 19 19 20 20 19 18 18 19 18 20 22 22 22 23 22 22 23 25 27 29 30 31 30 30 30 30 31 31 32 33 34 35 35 35 36 37 38 38 39 39 40 41 42 41 39 37 35 33 30
19 19 19 19 18 18 18 18 18 19 19 19 19 20 20 18 18 20 23 23 23 21 17 18 18 18 22 20 18 19 17 16 16 16 17 17 18 18 18 19 19 19 18 18 19 19 17 17 21 22 20 20 20 21 24 27 29 30 31 31 30 30 30 30 30 31 32 32 34 35 35 36 36 37 37 38 38 39 40 41 42 42 41 39 36 34 32 30
19 19 19 19 18 19 19 19 18 19 19 19 19 20 20 18 17 19 22 23 22 20 18 18 19 20 21 18 17 18 17 17 17 17 17 18 19 18 18 19 19 19 19 19 19 17 17 19 21 19 19 21 23 26 28 29 30 30 30 30 30 30 30 30 31 32 32 33 35 35 36 36 37 37 38 38 39 39 41 42 42 41 40 38 36 34 32 29
19 19 19 19 18 18 19 19 18 19 19 19 19 20 19 18 16 18 21 22 21 20 19 19 21 21 17 14 16 18 17 17 17 17 17 18 19 19 19 19 19 19 19 18 17 17 18 19 18 19 22 25 26 28 28 29 29 29 29 30 31 31 31 32 32 33 33 34 35 36 37 37 37 38 38 38 39 40 42 42 42 41 40 38 36 34 31 29
19 19 19 19 19 19 19 19 18 18 18 18 19 19 18 16 16 17 20 22 22 21 19 19 20 18 15 15 17 17 17 17 17 17 17 18 19 19 19 19 19 19 18 17 18 19 19 19 19 21 23 23 25 27 28 29 29 29 30 30 30 31 31 32 33 33 34 35 36 36 36 37 37 38 38 38 40 41 42 42 42 41 39 38 35 33 31 29
19 20 20 20 20 20 19 18 18 18 18 18 18 17 17 17 17 17 19 21 22 19 18 18 17 15 15 16 17 17 17 17 16 16 18 19 20 20 20 20 19 18 17 18 19 20 20 20 21 21 21 24 26 27 28 28 28 29 30 30 31 31 32 33 33 34 34 35 36 36 37 37 37 38 38 39 40 41 42 41 41 41 40 37 35 33 31 30
20 20 20 20 20 20 19 18 18 18 17 17 17 17 17 18 18 18 19 19 18 17 16 16 15 15 15 16 17 17 16 15 15 17 19 20 20 20 21 20 19 18 18 19 20 20 21 21 22 21 23 25 26 27 27 27 28 29 30 31 32 32 33 33 33 33 34 35 35 36 37 37 37 38 39 40 41 41 41 41 41 41 40 37 34 33 31 30
20 20 20 20 20 19 19 18 18 17 17 17 17 17 17 17 17 18 18 17 15 15 15 15 15 15 15 15 15 14 13 15 17 19 20 20 20 21 21 20 20 19 20 21 21 21 22 22 22 23 24 25 26 27 27 28 29 29 31 32 33 34 34 33 33 33 34 34 35 36 37 37 38 39 40 41 41 41 41 42 41 41 39 36 34 33 32 31
19 19 19 19 19 19 19 18 18 17 17 17 17 16 16 16 16 15 16 15 14 14 13 13 14 14 14 13 13 13 14 16 17 18 19 20 21 21 21 21 21 20 21 22 23 23 24 23 24 24 24 25 25 26 28 29 30 31 33 34 34 34 33 32 33 33 34 35 35 36 37 38 39 40 41 41 41 41 41 41 41 40 38 36 34 33 32 32
18 18 19 19 19 19 19 18 17 17 16 16 16 16 15 15 15 15 15 14 13 12 11 11 11 12 13 12 12 13 14 15 16 18 20 21 22 22 22 22 22 22 23 24 25 25 25 24 24 24 23 24 25 27 29 30 32 34 35 35 35 34 33 33 33 33 34 35 35 37 37 37 39 40 40 41 41 40 41 40 40 39 37 36 34 33 32 31
17 17 18 18 18 18 18 18 17 17 16 15 14 15 15 15 15 15 15 14 12 10 10 10 9 10 11 10 11 12 13 15 17 19 21 22 23 22 22 23 23 24 25 26 26 26 24 23 23 23 23 25 27 29 31 33 34 35 35 36 36 34 33 33 33 34 34 34 36 37 38 38 39 41 41 41 40 40 40 40 39 38 36 35 34 33 32 32
16 16 16 17 17 16 17 17 17 16 16 14 14 14 14 14 14 14 14 13 11 10 10 10 9 8 9 9 11 12 13 15 17 19 22 23 23 23 22 23 24 25 26 26 25 25 24 23 23 23 24 26 29 31 33 35 36 36 36 37 36 35 34 33 33 34 35 36 37 37 39 40 40 42 42 41 40 40 40 39 38 37 36 35 34 34 33 33
14 15 15 16 16 16 16 17 16 16 15 14 14 13 13 13 13 13 12 12 12 11 11 10 9 9 8 9 10 12 13 14 16 18 22 23 22 22 22 22 24 25 26 26 25 25 24 23 24 24 25 28 31 33 34 36 36 37 37 37 36 35 34 33 34 34 35 35 36 37 39 41 41 42 42 41 41 40 40 40 39 38 36 36 34 33 33 33
12 13 14 14 15 15 15 16 16 15 15 15 14 13 12 12 12 12 12 12 13 13 11 10 10 9 9 8 10 11 13 14 15 18 21 22 22 21 21 22 24 25 26 26 25 25 24 24 25 26 28 30 32 34 35 36 37 37 37 37 36 35 34 34 34 35 35 35 36 38 40 40 41 42 42 41 41 41 41 42 41 39 37 35 34 33 32 32
11 12 13 13 14 14 14 15 15 15 15 15 14 13 12 12 11 11 11 12 13 13 12 11 10 9 9 9 10 11 12 13 16 17 20 22 21 21 21 22 23 25 26 26 25 25 25 25 27 28 30 32 33 34 36 37 38 37 37 37 36 35 34 33 34 35 35 36 38 39 39 40 40 41 41 41 41 41 42 42 41 38 36 35 33 32 31 32
10 11 12 12 13 13 14 14 15 15 15 15 15 14 13 12 11 11 11 12 12 12 12 12 10 9 9 10 11 12 13 15 16 17 20 21 20 20 20 21 23 25 26 26 26 26 26 26 27 29 30 32 33 35 36 37 38 38 38 38 36 34 33 33 34 35 36 38 39 39 39 40 41 41 41 41 41 41 41 41 41 39 37 35 34 33 33 33
10 11 11 12 12 13 13 14 15 15 15 15 15 15 14 13 13 12 12 12 12 11 12 12 10 9 9 10 11 12 13 14 14 16 18 19 18 18 20 22 23 25 26 26 26 26 25 26 27 28 30 32 33 35 36 37 38 38 39 38 36 35 34 33 34 35 36 38 39 38 38 39 40 41 41 41 41 41 41 41 41 40 38 36 35 35 35 35
11 11 11 12 12 13 13 14 14 15 15 16 16 15 15 15 14 13 12 11 11 10 11 11 10 9 8 9 10 11 12 12 13 15 18 19 18 19 21 22 22 23 25 26 26 25 25 25 27 28 30 31 33 34 36 37 37 38 39 38 37 36 35 35 35 36 36 36 37 37 37 38 40 40 41 40 40 40 41 41 41 40 39 37 36 36 36 36
11 12 12 12 13 13 13 14 14 15 16 16 16 16 16 16 15 14 13 11 10 10 11 11 10 9 8 8 10 10 11 12 13 16 18 19 18 19 20 21 22 23 24 25 25 24 24 25 27 28 29 31 32 33 34 35 37 38 39 40 39 37 36 36 35 35 35 34 36 36 36 38 40 40 41 40 39 41 41 41 41 40 39 37 36 36 36 35
11 12 12 13 13 13 14 14 14 15 16 17 17 17 17 16 16 16 14 11 10 11 11 10 9 9 9 9 9 9 10 11 13 15 18 18 17 18 19 20 21 23 23 24 24 24 24 25 27 28 29 30 31 32 33 35 36 37 40 40 39 37 36 36 35 35 35 34 35 36 36 37 39 40 41 41 40 40 40 41 41 40 39 38 37 36 36 36
11 12 12 13 13 14 14 15 15 15 16 17 17 17 17 17 16 16 14 11 10 11 11 10 8 8 8 8 8 8 9 10 12 14 16 17 17 17 18 20 21 22 23 24 24 24 24 25 27 28 28 29 31 32 33 34 35 37 39 39 39 38 36 36 35 35 34 33 35 37 37 37 39 39 40 41 41 40 39 39 40 40 39 39 38 37 37 37
12 13 13 13 14 15 15 15 16 16 17 17 18 18 17 17 16 16 14 11 10 11 10 9 8 7 7 7 7 7 8 9 11 13 16 17 16 17 18 19 20 21 22 23 24 24 24 24 26 27 28 29 30 31 32 33 34 36 38 38 38 38 36 35 34 34 34 34 35 37 38 38 39 40 40 41 40 40 41 40 40 40 40 39 39 38 38 37
14 14 14 15 15 15 16 16 16 17 17 18 18 18 17 17 16 16 13 11 10 9 8 7 7 6 6 6 6 6 7 9 10 13 16 17 16 16 17 18 19 21 22 23 23 24 24 24 26 27 27 28 29 30 31 33 34 36 38 38 38 37 36 35 34 34 34 35 35 37 38 39 39 40 40 40 40 41 42 42 41 40 40 40 40 39 38 38
16 16 16 16 16 16 17 17 17 18 18 18 18 18 17 17 16 15 13 10 9 7 7 6 6 6 6 6 6 6 7 9 11 13 16 16 16 16 16 17 19 20 21 22 23 24 24 24 26 27 27 27 28 30 31 32 34 36 38 39 38 37 36 35 34 34 34 35 35 35 37 39 39 39 40 40 41 42 42 42 41 40 40 40 40 40 39 39
18 18 18 18 18 18 18 18 18 19 19 19 18 18 17 17 16 14 11 9 8 6 5 5 6 6 6 6 6 6 7 9 11 14 16 16 16 16 16 17 19 20 21 22 23 24 24 24 26 27 27 27 28 29 30 32 33 36 38 38 37 36 36 35 34 33 33 34 36 36 36 39 39 39 40 40 41 41 42 42 42 40 40 40 40 40 40 40
20 20 19 19 19 19 18 18 19 20 20 20 18 17 17 17 16 14 10 9 7 4 3 4 5 6 6 6 6 7 8 10 12 14 16 16 16 16 16 17 19 20 21 22 23 23 23 24 25 27 27 28 28 29 30 31 33 35 37 37 36 35 35 35 33 32 32 34 36 37 37 38 40 39 39 40 40 41 42 42 42 41 40 40 41 41 41 41
21 21 20 20 20 18 18 18 19 20 20 19 17 17 16 16 16 13 9 8 6 3 3 4 5 6 6 7 7 8 9 11 12 15 16 17 17 17 17 17 19 21 21 21 22 23 23 24 25 26 27 28 28 29 30 31 33 34 37 37 36 35 35 34 33 32 32 33 35 37 37 38 39 40 40 40 40 41 41 42 42 41 41 40 40 41 41 42
21 20 20 19 18 17 16 17 18 18 18 17 16 16 15 15 15 12 8 7 6 4 3 4 5 6 7 7 8 9 10 12 13 16 17 18 18 17 17 17 19 21 21 21 21 22 23 24 25 26 27 28 29 29 30 32 32 34 37 37 35 34 34 34 33 31 31 32 34 35 36 38 39 40 41 40 40 41 42 42 42 41 41 40 40 40 41 41
20 20 18 17 15 14 14 15 15 15 16 16 15 15 14 15 14 11 8 7 6 5 5 5 5 6 7 7 8 10 11 13 15 17 18 19 19 18 17 17 18 20 21 21 21 21 22 23 24 26 27 27 28 29 30 32 32 33 36 37 35 34 33 33 33 30 29 31 33 34 36 38 40 41 42 42 41 42 42 42 41 41 41 40 40 40 41 41
18 17 16 14 13 12 12 13 14 14 15 15 15 14 13 14 14 10 8 8 7 7 6 6 7 7 7 8 9 10 12 13 16 17 19 20 19 18 17 17 19 21 21 21 21 21 22 23 24 25 26 27 28 28 29 31 32 33 36 37 35 34 33 32 32 30 29 30 32 34 35 37 40 41 42 43 43 43 44 43 43 43 42 41 41 41 41 42
16 15 13 12 11 12 12 13 14 14 15 15 14 13 12 13 13 10 9 8 8 8 8 8 9 9 8 9 10 11 12 14 16 17 19 19 19 18 17 17 19 21 21 21 22 22 22 23 24 25 27 28 29 29 29 31 32 33 36 37 35 33 33 32 32 30 28 29 31 34 35 36 39 41 43 44 45 46 46 45 44 44 43 42 41 41 41 42
13 12 11 10 11 12 12 13 13 14 14 15 14 13 13 13 13 11 10 9 9 10 10 10 10 10 9 10 10 12 12 13 15 17 18 19 18 17 16 17 19 21 21 22 22 23 23 23 24 25 26 28 29 29 30 30 31 33 36 37 35 33 33 32 31 30 29 28 30 32 34 35 37 40 42 44 45 47 48 48 46 45 43 43 42 42 42 42
11 11 11 11 11 12 12 13 13 14 14 15 15 14 13 13 14 13 12 12 11 11 11 11 11 11 10 10 10 11 12 13 14 16 18 18 17 17 17 18 20 21 21 22 23 23 23 25 25 24 25 27 29 29 30 30 31 32 34 37 35 33 32 32 32 31 30 29 30 31 33 34 36 39 41 43 44 46 48 49 49 47 45 44 43 42 42 42
12 11 11 12 12 13 13 13 14 14 15 15 15 15 15 15 15 15 15 14 13 13 13 12 12 12 10 9 10 10 11 12 14 16 17 18 17 16 17 19 20 21 21 22 22 23 23 25 26 26 25 26 28 29 29 30 30 31 33 36 36 33 32 32 32 32 31 31 31 32 33 34 36 38 40 42 43 45 46 48 50 50 49 46 44 43 42 42
13 13 12 13 13 14 14 14 15 16 16 16 16 16 16 16 16 16 16 16 15 14 14 13 13 12 11 10 10 11 11 12 14 16 17 17 17 17 17 19 21 21 21 22 22 23 23 24 26 27 26 26 27 29 29 29 30 30 31 34 36 35 32 32 32 33 32 32 33 33 33 34 36 37 39 41 43 44 46 47 49 51 52 50 47 45 44 43
16 15 14 14 15 15 16 16 16 17 17 18 18 18 18 18 17 17 17 16 15 15 14 14 14 13 11 10 11 11 11 13 14 16 17 18 17 17 18 20 21 21 22 22 23 24 24 24 25 26 27 27 27 29 29 29 29 30 30 32 35 36 34 32 32 32 33 33 34 35 35 35 36 37 38 40 42 44 46 46 47 49 51 52 52 49 47 45
18 17 16 16 16 17 17 18 18 18 19 19 19 19 19 19 19 18 18 17 15 15 15 14 14 12 11 11 12 12 12 13 15 16 17 18 18 18 19 20 21 22 22 22 23 24 25 25 25 25 26 27 27 27 29 29 28 29 30 32 34 35 35 33 32 32 33 34 35 37 37 38 38 38 38 40 42 43 45 46 47 48 50 52 53 53 51 48
21 19 18 18 18 18 19 19 20 20 20 20 21 21 21 20 20 19 18 17 16 15 15 15 14 13 12 12 13 14 14 14 15 16 17 18 19 19 19 20 21 22 22 22 23 24 25 25 25 24 25 27 27 26 27 28 28 29 30 32 32 34 35 35 33 31 33 34 36 37 39 40 40 40 40 40 42 43 45 46 47 49 50 50 52 53 54 52
Wind_Direction
91 90 89 89 88 88 88 87 87 87 88 88 90 91 91 90 89 88 87 86 86 87 86 85 84 84 84 84 84 83 82 82 78 70 67 69 74 75 70 67 65 63 62 62 60 57 55 56 56 55 53 52 50 48 47 44 43 40 38 37 34 31 28 25 23 20 17 14 11 7 4 0 356 353 349 344 342 338 335 332 329 326 324 322 319 316 314 312
88 87 85 85 85 85 86 87 87 87 87 89 92 93 93 91 90 90 89 88 87 88 88 88 88 87 86 86 85 83 78 77 75 71 70 76 77 77 73 67 64 61 62 63 60 57 56 57 57 56 53 52 49 46 45 42 40 39 37 35 32 28 25 22 19 17 13 10 7 4 0 357 354 350 347 343 340 338 336 333 331 328 326 325 322 320 318 317
84 83 83 83 84 85 86 87 88 89 91 94 96 95 94 92 92 92 92 91 89 89 90 90 89 89 87 85 82 82 80 76 76 77 78 78 78 78 74 69 65 61 62 62 59 58 59 58 57 56 53 51 47 45 44 41 37 37 35 33 30 26 23 19 15 13 9 6 3 359 356 353 350 346 343 341 337 335 334 332 330 328 327 325 323 322 320 318
83 83 83 84 85 86 87 87 88 90 93 96 96 95 93 91 93 94 94 94 92 91 91 89 87 86 84 83 83 83 80 76 78 82 80 77 78 78 77 72 65 60 62 63 61 59 60 59 56 54 53 51 46 44 43 40 36 33 34 31 28 24 20 17 13 10 6 2 359 356 353 349 346 342 339 338 334 332 331 329 328 326 325 323 321 319 318 317
84 84 85 85 86 87 87 88 89 90 92 94 95 94 93 92 92 93 94 94 95 95 93 91 88 84 82 81 84 82 77 78 82 82 78 76 76 78 78 72 64 59 60 62 62 59 59 59 55 51 52 50 45 42 39 38 34 30 32 29 24 21 17 14 9 6 3 359 356 353 350 346 343 340 336 335 332 331 329 328 326 325 323 322 321 320 319 318
86 86 87 88 87 87 87 87 88 89 90 91 92 92 92 91 91 91 91 92 94 94 95 96 92 87 84 79 79 83 82 81 82 78 76 76 76 76 76 71 64 59 59 61 62 60 58 57 53 50 51 47 42 40 35 34 31 27 29 24 20 17 12 11 6 2 360 357 353 350 348 344 341 338 336 334 332 331 330 328 327 326 326 325 324 323 322 321
89 89 89 89 88 87 86 86 86 86 87 88 89 89 89 90 90 90 90 91 92 93 93 94 91 86 83 82 82 85 84 80 78 77 76 77 77 75 74 71 65 60 60 60 61 61 56 52 50 48 46 42 38 36 32 30 28 24 23 19 16 12 8 7 2 359 356 353 350 348 346 342 340 338 336 334 333 332 331 330 330 329 329 327 326 325 324 323
90 89 88 88 87 86 84 84 84 84 85 85 85 84 85 87 88 90 90 90 90 89 88 87 86 81 81 90 89 84 83 81 80 78 78 79 77 75 73 71 67 62 61 60 58 58 55 50 45 42 42 38 33 32 28 26 24 21 19 14 11 8 5 2 359 356 352 350 347 345 343 340 339 336 334 333 332 331 331 331 331 330 329 328 326 325 325 324
89 88 87 86 84 83 81 80 80 80 82 84 85 85 85 86 87 90 91 90 89 88 87 85 85 84 84 93 87 81 81 80 79 79 77 76 75 74 73 71 69 64 59 58 55 53 52 48 40 37 40 34 29 28 24 24 20 16 15 11 7 5 2 358 355 353 349 347 343 341 340 338 336 334 332 331 331 331 331 331 331 330 329 327 326 326 326 325
88 86 85 83 82 81 79 78 77 78 80 82 84 85 86 86 86 88 89 89 88 87 86 86 87 85 82 87 85 80 80 78 77 76 71 72 74 74 72 69 67 61 55 53 52 49 47 45 37 34 37 31 26 25 21 21 17 13 11 6 5 3 358 354 353 350 347 344 340 339 338 335 334 332 331 331 331 332 332 332 332 331 330 329 328 328 328 327
87 86 84 83 83 82 81 80 79 79 80 81 81 82 84 86 86 87 88 89 88 87 86 84 84 82 80 87 86 82 80 78 76 75 71 72 72 67 65 63 60 56 51 48 47 45 42 40 33 31 33 27 24 23 20 18 13 10 7 4 4 -0 355 353 351 348 346 343 340 338 337 335 334 332 332 333 334 334 335 334 333 333 332 332 332 332 332 330
87 86 86 86 85 85 84 82 82 82 81 81 80 80 80 82 84 84 87 88 86 84 80 79 80 84 93 90 84 80 79 77 75 75 72 69 65 60 59 56 52 50 45 43 43 41 38 35 28 28 30 24 21 20 17 14 11 8 5 4 1 357 355 354 351 350 346 343 341 339 337 336 334 334 335 335 336 337 336 336 335 335 334 335 335 335 334 334
86 86 86 86 86 85 85 84 84 83 82 81 80 78 77 79 82 83 83 83 82 79 79 82 88 98 98 85 80 79 78 76 74 72 67 63 60 56 52 49 46 43 41 39 38 35 33 29 24 27 27 21 20 18 14 12 9 6 5 3 359 358 358 356 354 351 347 344 342 340 338 337 336 337 337 338 339 338 337 337 337 337 337 337 337 337 337 337
85 85 85 85 86 85 85 85 84 84 83 81 80 78 75 76 81 83 82 81 81 82 86 90 93 96 89 81 81 81 77 74 70 66 61 57 54 50 46 43 40 39 37 35 32 29 27 23 22 27 23 18 18 16 11 9 8 7 5 3 2 2 -0 357 355 350 347 345 343 341 340 339 339 339 340 341 340 339 339 338 338 339 339 340 340 340 340 340
85 84 84 84 84 85 84 84 83 82 80 79 80 79 76 76 79 82 81 81 81 81 84 87 87 86 84 81 80 78 73 69 65 60 55 51 48 45 41 39 36 34 33 30 27 25 22 16 21 25 19 16 16 12 9 7 9 8 5 5 4 2 359 357 354 350 348 346 344 343 341 341 342 342 343 342 341 341 340 340 340 340 341 342 342 343 342 341
83 82 82 83 83 83 83 82 82 80 79 78 78 79 77 75 77 80 80 78 77 78 81 85 85 80 78 76 72 71 67 63 59 53 50 46 44 41 37 35 32 30 28 25 23 20 14 14 21 21 14 15 14 11 11 10 10 8 6 5 3 0 359 356 354 352 350 347 345 344 343 344 344 344 344 343 343 342 342 342 342 342 343 344 345 344 343 342
81 81 81 81 81 82 81 80 79 77 76 75 75 76 76 74 73 77 79 77 76 76 77 79 79 74 72 70 68 66 61 55 50 45 43 41 39 37 34 32 29 27 25 22 19 13 10 15 17 12 11 15 13 13 12 11 10 8 6 4 1 0 359 357 356 354 351 349 347 346 345 346 346 346 345 344 344 343 343 343 343 344 345 346 346 345 344 341
81 80 80 79 79 78 77 76 75 73 72 72 72 72 73 74 75 77 79 78 76 73 71 72 71 71 71 69 65 60 54 49 44 39 37 36 34 32 30 28 26 25 24 20 14 10 13 13 9 10 14 14 13 13 13 11 10 7 6 3 1 1 0 359 357 355 353 350 349 347 348 348 347 347 346 345 345 345 344 344 344 345 346 348 347 346 343 340
79 78 77 76 75 74 73 72 71 70 70 69 69 69 71 74 76 78 79 77 73 69 67 67 66 66 64 60 58 55 48 44 39 34 33 32 29 27 25 23 23 22 20 16 11 11 11 8 7 11 12 12 14 15 13 12 9 7 6 3 2 2 2 1 359 357 354 351 350 349 349 349 348 347 346 346 346 346 345 345 346 346 347 348 348 346 343 339
75 73 72 71 70 70 69 69 69 69 68 68 69 70 73 73 71 71 71 69 67 66 64 63 63 59 54 52 52 49 43 39 33 30 30 28 24 22 20 19 18 17 15 13 11 9 7 5 7 7 9 14 16 15 14 11 9 8 5 3 4 4 3 2 1 358 355 352 351 350 350 349 348 348 347 348 347 346 346 347 347 347 348 349 349 347 343 339
71 69 68 67 66 66 65 65 66 66 66 66 66 67 66 65 62 61 63 64 64 64 61 58 56 51 47 46 45 42 37 34 29 27 26 23 20 19 16 14 13 12 11 10 9 7 5 4 3 4 11 16 16 16 14 11 9 8 5 5 5 4 5 4 2 359 355 353 352 351 350 349 349 349 348 349 348 348 348 348 348 348 349 350 349 347 343 339
70 68 67 65 64 63 62 62 63 63 64 64 63 63 62 62 61 61 65 66 63 61 59 54 52 50 46 44 43 39 33 31 27 25 23 18 17 16 13 12 11 9 8 7 7 5 3 3 2 6 12 16 16 15 13 10 8 7 6 5 5 5 6 5 2 358 354 354 353 352 351 350 350 349 349 349 349 350 350 350 349 349 349 350 349 347 343 340
69 68 66 64 63 62 61 60 60 61 62 62 62 63 63 63 64 63 65 66 62 60 60 56 54 52 49 44 42 37 32 30 26 24 21 17 16 14 12 12 10 8 7 6 5 4 3 2 3 7 12 15 16 14 12 9 7 7 6 5 4 5 7 6 3 358 354 355 354 352 353 352 350 350 350 350 351 352 352 351 350 349 349 350 349 347 345 342
66 65 64 62 61 59 59 58 58 58 58 58 59 60 61 61 61 59 59 60 58 56 57 56 54 52 48 40 36 35 31 28 25 22 19 17 16 13 12 12 9 8 7 5 4 4 3 2 4 7 10 14 16 14 11 8 7 7 5 4 4 5 7 6 3 359 356 355 353 353 354 352 350 350 351 351 352 353 352 351 350 349 349 349 349 348 347 345
63 61 59 58 57 56 56 56 55 54 54 54 54 55 55 55 54 53 52 52 51 49 50 49 46 46 42 34 31 31 28 25 23 20 17 16 14 11 12 12 9 8 7 4 4 3 2 2 4 7 11 15 16 13 10 7 6 5 4 4 4 5 6 5 2 359 356 356 355 354 354 353 352 352 351 352 354 354 353 352 351 350 349 349 349 349 349 349
60 58 56 54 53 52 52 53 51 50 50 49 49 49 49 49 48 47 46 45 44 42 42 40 37 38 33 28 25 23 24 23 19 17 15 13 11 10 12 11 9 8 6 4 5 4 3 3 6 9 13 16 15 13 9 6 5 4 4 4 4 4 5 4 3 359 357 357 357 355 354 355 354 352 352 353 354 355 353 352 351 350 350 351 352 353 353 351
58 55 53 50 49 47 47 47 47 45 45 44 43 43 42 42 41 40 40 38 36 36 36 34 32 31 26 21 19 19 21 19 16 15 13 10 9 10 11 11 9 7 5 5 5 5 4 6 9 12 15 16 15 12 8 5 5 4 4 4 3 4 4 3 2 1 0 359 357 357 357 357 355 353 353 353 354 354 353 353 354 354 354 355 356 356 354 352
52 50 48 46 44 43 42 42 41 39 38 37 37 36 35 34 33 33 33 31 31 31 30 29 29 28 23 19 18 19 19 15 14 13 10 8 9 10 10 10 9 6 5 5 5 6 7 9 12 14 16 16 14 10 7 5 5 4 5 5 3 3 3 2 1 1 2 360 360 1 360 357 355 354 353 353 353 353 353 354 355 356 356 356 357 356 353 351
43 42 41 40 38 36 36 35 34 33 32 30 29 28 28 27 26 26 25 25 27 27 26 25 25 22 19 18 18 17 16 14 14 12 8 6 8 9 9 9 8 6 6 6 6 8 11 13 14 15 16 15 12 9 6 5 5 4 5 5 4 3 3 2 2 2 3 3 3 3 360 357 356 355 354 353 353 354 354 355 355 356 356 356 357 355 353 351
33 32 31 30 29 29 28 28 26 25 25 23 21 21 21 19 19 19 19 20 22 23 23 23 20 17 16 16 16 15 14 14 13 11 7 5 7 8 7 7 8 6 6 7 8 10 13 15 16 16 16 14 12 9 7 5 5 4 5 5 4 2 2 3 4 4 4 5 5 3 360 358 357 356 355 353 353 354 354 354 356 356 357 357 356 355 353 352
23 22 21 21 20 19 19 19 19 17 17 16 15 14 13 12 12 12 12 15 18 20 21 21 18 14 13 15 15 14 14 14 13 10 6 4 6 6 7 8 8 6 6 7 10 12 14 16 16 16 16 13 11 9 7 6 5 5 5 5 2 1 2 5 7 7 6 5 4 3 1 359 358 357 356 354 354 354 354 355 356 356 357 357 356 354 353 352
11 11 11 11 11 10 10 11 11 10 10 9 8 8 7 7 6 6 7 10 14 18 19 18 16 14 13 13 13 13 14 16 14 9 5 3 5 5 6 6 5 5 5 7 11 13 14 16 15 15 14 13 11 9 8 7 5 4 4 3 1 0 1 5 7 8 6 3 2 4 2 0 0 359 357 356 354 353 353 356 356 356 358 358 356 354 353 351
1 0 360 360 1 1 1 1 2 3 3 4 3 2 1 0 -0 1 4 6 10 15 16 14 13 15 17 14 12 13 16 18 15 9 4 3 3 3 4 3 2 3 5 6 9 12 13 15 14 14 13 11 9 8 7 6 5 4 3 1 0 -0 1 3 6 6 6 3 3 6 5 2 2 0 359 358 355 353 354 356 357 357 358 358 356 355 353 351
353 351 350 350 351 352 352 352 353 355 356 358 359 357 356 355 355 358 -0 1 5 10 11 12 13 17 20 17 14 15 18 19 14 7 3 1 360 360 0 0 0 1 2 4 7 10 13 14 14 14 13 10 7 6 5 5 6 5 2 1 1 -0 0 2 3 4 5 2 1 6 8 5 4 2 0 359 357 355 355 355 357 358 358 357 356 355 354 353
345 344 343 343 342 343 344 345 345 347 349 352 353 353 352 350 350 353 356 356 360 4 7 12 16 20 21 17 14 15 17 17 11 4 0 359 357 357 357 358 358 358 359 2 4 7 11 14 14 14 12 9 7 5 5 6 8 6 4 3 1 360 0 1 2 2 4 4 3 6 9 7 5 4 2 0 359 356 355 355 355 356 357 356 356 355 355 355
336 336 335 335 334 335 336 337 338 339 341 344 346 347 347 346 346 349 351 350 355 1 7 16 20 21 20 14 11 12 11 10 5 358 357 356 354 354 355 355 355 355 357 360 2 5 9 12 12 13 12 10 7 5 5 7 8 7 6 4 1 359 359 0 1 2 5 7 6 6 9 7 5 5 3 1 359 355 354 354 355 355 356 356 356 356 355 354
328 327 327 326 326 327 328 329 330 331 333 336 340 341 342 342 342 345 346 346 352 1 11 22 23 20 16 10 6 4 0 0 357 353 354 354 352 352 352 352 353 354 354 357 0 4 6 9 10 11 12 11 6 3 5 6 7 8 6 4 1 359 358 359 1 3 6 9 8 5 7 7 4 4 4 1 358 356 355 355 355 355 355 356 356 356 355 354
319 319 320 321 321 320 319 320 321 323 325 328 332 334 336 337 338 341 342 341 349 5 19 25 22 16 10 3 358 352 350 351 350 349 351 351 350 350 350 351 352 353 353 354 358 2 4 6 8 9 10 10 6 3 4 6 7 7 5 3 1 359 358 358 360 3 6 10 11 8 6 7 6 4 3 1 359 357 356 356 356 355 354 355 355 355 354 354
313 313 314 315 316 315 313 312 314 316 318 321 324 327 329 331 334 338 338 336 345 8 24 22 16 9 1 354 348 343 343 345 345 347 349 349 349 348 348 350 351 352 351 352 356 360 2 4 6 8 8 9 6 3 4 6 7 7 5 4 2 359 358 358 358 1 5 8 11 12 8 7 7 5 3 1 360 357 356 356 356 355 354 353 354 354 353 353
307 308 309 311 313 312 309 307 308 310 313 315 317 319 323 326 330 333 333 330 337 1 21 14 6 356 349 344 339 337 340 341 342 344 346 347 347 347 348 349 350 351 350 349 352 356 359 1 4 6 7 8 7 4 3 5 7 7 5 3 2 360 357 358 358 360 3 7 9 11 10 7 7 7 4 3 1 358 357 357 357 356 354 354 353 352 352 352
304 305 307 310 311 310 307 307 308 309 311 312 312 314 317 323 327 329 327 325 327 338 353 355 351 342 338 336 334 335 338 339 339 342 344 346 346 347 346 347 348 348 346 345 348 352 355 359 2 5 7 8 7 4 2 4 6 6 5 2 1 360 356 356 357 359 2 7 9 10 11 10 10 9 8 5 2 359 358 358 358 357 356 355 354 352 352 351
302 303 306 309 311 311 309 310 311 311 312 311 310 311 314 321 325 324 320 318 314 310 315 325 331 330 331 332 332 332 335 335 337 340 343 345 346 345 344 344 345 346 343 342 345 348 351 355 358 2 6 7 6 3 2 4 5 6 4 1 359 359 356 353 355 359 1 6 10 10 10 13 14 12 10 7 3 1 360 360 359 358 356 355 354 353 352 351
300 301 304 308 311 313 315 318 319 319 317 313 309 309 311 319 324 320 314 313 304 295 298 302 310 317 323 328 329 329 332 334 337 340 342 344 344 342 341 341 343 343 341 339 341 344 348 351 355 0 5 7 6 4 3 3 4 5 3 360 358 358 356 352 353 357 1 4 9 11 10 13 15 14 12 10 6 3 1 1 0 359 358 356 355 353 352 351
298 299 303 308 313 317 322 326 327 327 324 318 311 308 310 319 324 318 310 308 299 290 290 291 296 305 313 321 326 329 334 337 339 340 342 342 341 340 338 339 340 340 339 338 337 341 346 348 351 356 1 5 5 4 4 3 2 4 2 359 357 356 355 352 350 354 0 2 6 10 10 10 13 14 14 12 9 6 3 2 1 0 359 358 356 354 352 351
297 296 300 306 313 319 324 328 330 330 329 324 316 310 310 318 323 317 308 304 295 287 287 288 291 298 309 320 328 334 337 340 341 341 341 339 338 337 336 337 338 338 338 337 336 338 342 345 348 351 355 -0 3 2 3 3 2 2 1 358 356 355 353 351 347 349 355 0 4 8 10 10 11 14 15 13 11 8 6 3 1 0 360 358 356 354 352 351
299 296 300 306 311 317 322 326 328 331 331 328 321 314 310 316 322 316 307 301 292 285 284 286 290 299 313 324 332 337 339 341 342 341 339 338 336 335 334 334 337 337 337 336 336 336 339 341 345 349 352 355 358 359 0 2 1 1 0 358 356 353 351 349 346 344 348 355 -0 3 7 9 10 11 13 14 13 11 8 6 4 2 0 359 357 355 353 352
297 297 300 304 309 314 319 322 326 329 331 330 326 318 311 312 318 316 307 300 293 286 284 287 292 302 317 327 332 335 337 339 341 340 338 337 336 334 333 334 336 337 336 336 336 336 337 338 340 345 349 352 354 356 357 359 359 359 359 357 355 353 350 347 344 342 342 347 353 356 360 4 6 7 9 10 11 11 10 8 7 4 2 -0 358 356 355 353
291 293 297 301 305 310 315 319 322 325 328 329 327 322 315 311 313 315 310 300 291 286 286 289 295 305 317 324 328 331 334 336 338 338 337 335 333 332 332 334 336 336 336 336 337 336 336 337 337 339 345 349 351 353 355 356 356 357 358 357 354 352 350 346 342 340 338 339 344 350 354 358 1 3 4 5 6 7 7 7 7 6 4 2 359 357 355 354
285 288 293 298 302 307 311 315 319 322 324 325 325 324 319 313 309 311 310 302 291 286 287 290 298 306 313 318 321 325 328 332 335 336 334 332 331 331 331 333 335 335 334 336 338 337 335 335 335 335 340 347 350 350 352 354 354 354 355 355 353 350 348 345 341 338 336 335 337 341 346 351 354 357 359 0 1 2 3 4 5 5 5 3 1 359 357 355
278 282 287 292 297 301 305 309 314 317 320 322 323 322 320 317 312 308 308 304 293 286 286 290 298 305 309 311 314 318 322 327 331 332 331 329 329 329 330 332 334 333 332 336 339 337 335 334 335 334 335 342 348 349 349 351 352 352 352 353 352 349 347 345 341 336 334 333 332 334 337 341 345 349 353 355 356 357 358 0 1 2 2 3 2 1 359 357
274 277 282 286 292 296 299 304 308 312 315 318 320 320 319 318 315 309 306 303 295 287 286 290 296 301 304 304 307 311 316 322 325 327 327 327 327 328 328 330 332 331 331 336 339 338 335 333 334 333 332 337 345 348 347 348 350 351 350 350 350 349 346 344 342 336 333 332 331 330 332 334 337 341 345 348 350 352 354 357 358 359 359 0 1 1 1 359
271 274 277 281 287 291 295 300 303 306 310 313 316 318 318 317 316 313 306 299 292 287 286 288 292 296 299 300 302 307 312 317 321 322 323 325 326 326 326 327 329 328 329 333 337 337 335 334 333 333 331 333 339 344 345 346 348 350 350 348 347 346 345 343 341 337 333 331 331 330 330 331 332 335 339 342 345 348 350 352 355 356 357 357 358 359 0 0
Height
5824 5824 5825 5825 5825 5825 5825 5825 5826 5826 5826 5826 5826 5826 5826 5826 5826 5827 5827 5827 5828 5828 5828 5828 5828 5828 5828 5828 5829 5829 5830 5830 5826 5825 5827 5830 5831 5830 5830 5830 5829 5828 5826 5825 5826 5825 5823 5822 5821 5821 5821 5820 5820 5819 5819 5818 5818 5817 5817 5816 5815 5814 5813 5813 5812 5811 5810 5809 5808 5806 5805 5804 5803 5801 5799 5798 5796 5795 5793 5791 5789 5787 5785 5784 5782 5780 5778 5776
5826 5826 5827 5827 5827 5827 5827 5827 5828 5828 5828 5828 5828 5828 5828 5828 5828 5828 5829 5829 5830 5830 5830 5830 5830 5831 5830 5830 5831 5830 5831 5830 5825 5827 5832 5832 5832 5831 5831 5830 5830 5829 5827 5827 5827 5826 5824 5823 5823 5823 5822 5821 5821 5820 5820 5819 5819 5818 5817 5816 5815 5814 5814 5813 5812 5811 5810 5809 5807 5806 5805 5803 5802 5800 5798 5796 5795 5793 5791 5789 5787 5785 5783 5781 5779 5777 5775 5773
5828 5829 5829 5829 5829 5829 5830 5830 5830 5830 5830 5830 5830 5830 5830 5830 5830 5830 5831 5831 5831 5832 5832 5832 5833 5833 5832 5832 5832 5832 5833 5830 5827 5831 5834 5833 5833 5832 5831 5831 5831 5830 5829 5829 5828 5826 5825 5824 5824 5824 5823 5821 5822 5821 5821 5820 5819 5819 5818 5817 5816 5815 5814 5813 5812 5811 5810 5808 5807 5806 5804 5803 5801 5799 5797 5795 5793 5792 5790 5787 5785 5783 5781 5778 5776 5774 5772 5769
5831 5831 5831 5831 5832 5832 5832 5832 5832 5832 5832 5832 5832 5832 5832 5832 5833 5833 5833 5833 5833 5834 5834 5834 5834 5834 5834 5834 5834 5834 5833 5831 5831 5834 5835 5834 5834 5833 5832 5832 5832 5831 5830 5829 5828 5827 5826 5825 5825 5825 5823 5822 5823 5822 5821 5820 5820 5819 5818 5817 5816 5815 5814 5813 5812 5811 5810 5808 5807 5805 5804 5802 5800 5798 5796 5794 5792 5790 5788 5785 5783 5781 5778 5776 5774 5771 5769 5766
5833 5834 5834 5834 5834 5834 5834 5834 5834 5834 5834 5834 5834 5834 5834 5835 5835 5835 5835 5835 5835 5835 5835 5835 5836 5835 5835 5836 5836 5835 5833 5833 5835 5836 5835 5835 5835 5834 5833 5833 5832 5832 5831 5830 5829 5828 5827 5826 5826 5825 5823 5824 5824 5822 5822 5821 5820 5819 5818 5817 5817 5815 5814 5813 5812 5811 5809 5808 5806 5805 5803 5801 5799 5797 5795 5793 5790 5788 5786 5783 5781 5779 5776 5774 5771 5769 5766 5763
5836 5836 5837 5837 5837 5837 5836 5836 5836 5836 5836 5836 5836 5836 5837 5837 5837 5837 5837 5837 5837 5837 5837 5837 5836 5837 5836 5838 5838 5836 5835 5837 5837 5836 5836 5836 5836 5835 5834 5833 5833 5832 5832 5831 5830 5829 5828 5827 5826 5826 5825 5825 5824 5823 5822 5821 5821 5820 5818 5818 5817 5816 5814 5813 5812 5811 5809 5807 5806 5804 5802 5800 5798 5795 5793 5791 5788 5786 5784 5781 5779 5776 5774 5771 5768 5766 5763 5760
5839 5839 5839 5839 5839 5839 5839 5839 5839 5838 5839 5838 5838 5838 5838 5838 5838 5838 5838 5838 5838 5839 5839 5838 5837 5838 5837 5839 5840 5838 5836 5838 5837 5837 5837 5837 5837 5836 5835 5834 5833 5833 5833 5832 5831 5830 5829 5827 5827 5827 5826 5825 5824 5824 5823 5822 5821 5820 5819 5818 5817 5816 5814 5813 5812 5810 5809 5807 5805 5803 5801 5799 5797 5794 5792 5789 5787 5784 5782 5779 5777 5774 5771 5768 5765 5762 5759 5756
5842 5842 5842 5841 5841 5841 5841 5841 5841 5840 5840 5840 5840 5840 5840 5840 5840 5840 5840 5840 5840 5839 5840 5839 5838 5838 5839 5841 5841 5839 5838 5839 5838 5838 5838 5838 5837 5837 5835 5834 5834 5835 5834 5833 5832 5830 5829 5828 5828 5827 5826 5825 5825 5824 5824 5822 5821 5820 5819 5818 5817 5816 5814 5813 5811 5810 5808 5806 5804 5802 5800 5798 5795 5793 5790 5788 5785 5783 5780 5777 5774 5772 5769 5765 5762 5759 5756 5753
5844 5844 5844 5843 5843 5843 5843 5843 5842 5842 5842 5842 5841 5841 5841 5841 5841 5841 5841 5841 5841 5841 5841 5840 5839 5840 5842 5842 5841 5840 5839 5840 5839 5839 5839 5839 5838 5838 5836 5835 5836 5836 5835 5834 5832 5831 5829 5829 5829 5828 5826 5826 5826 5825 5824 5822 5821 5820 5819 5818 5816 5815 5814 5812 5811 5809 5807 5805 5803 5801 5799 5797 5794 5792 5789 5787 5784 5781 5778 5776 5773 5770 5767 5763 5760 5757 5754 5751
5846 5846 5845 5845 5845 5845 5844 5844 5844 5844 5843 5843 5843 5843 5843 5842 5842 5842 5842 5842 5842 5842 5842 5841 5840 5841 5844 5843 5841 5841 5840 5840 5840 5840 5840 5840 5840 5839 5837 5837 5837 5836 5836 5835 5832 5831 5829 5829 5829 5828 5827 5827 5826 5825 5823 5822 5821 5820 5819 5817 5816 5814 5813 5812 5810 5808 5807 5805 5802 5800 5798 5795 5793 5790 5788 5785 5782 5779 5777 5774 5771 5768 5764 5761 5758 5755 5751 5748
5848 5848 5847 5847 5847 5847 5846 5846 5846 5846 5845 5845 5844 5844 5844 5844 5843 5843 5843 5843 5843 5843 5843 5842 5841 5842 5845 5844 5842 5842 5842 5842 5842 5841 5842 5842 5841 5840 5838 5839 5838 5837 5836 5834 5832 5831 5830 5830 5830 5829 5828 5827 5826 5824 5823 5822 5821 5819 5818 5817 5815 5814 5813 5811 5809 5808 5806 5804 5801 5799 5796 5794 5791 5789 5786 5783 5780 5777 5774 5771 5768 5765 5762 5758 5755 5752 5749 5746
5850 5850 5849 5849 5849 5849 5848 5848 5848 5848 5847 5847 5846 5846 5845 5845 5845 5845 5844 5844 5844 5844 5843 5843 5842 5843 5846 5845 5843 5843 5843 5843 5843 5843 5844 5843 5842 5841 5840 5840 5839 5837 5836 5834 5833 5832 5831 5831 5831 5829 5828 5827 5825 5824 5823 5822 5820 5819 5818 5816 5814 5813 5812 5810 5808 5806 5804 5802 5800 5798 5795 5792 5790 5787 5784 5781 5778 5775 5772 5769 5766 5763 5759 5756 5753 5750 5746 5743
5852 5852 5851 5851 5851 5851 5850 5850 5850 5849 5849 5848 5848 5847 5847 5847 5846 5846 5846 5845 5845 5844 5844 5844 5845 5847 5847 5845 5844 5845 5845 5845 5845 5845 5845 5844 5842 5842 5841 5840 5839 5837 5836 5835 5834 5833 5832 5832 5831 5829 5827 5827 5825 5824 5823 5821 5820 5819 5817 5816 5815 5813 5811 5809 5807 5805 5803 5801 5799 5797 5794 5791 5788 5785 5782 5779 5776 5773 5770 5767 5764 5761 5757 5754 5751 5747 5744 5741
5854 5854 5853 5853 5853 5853 5852 5852 5852 5851 5851 5850 5850 5849 5849 5849 5848 5848 5847 5846 5846 5846 5847 5847 5848 5849 5847 5846 5847 5847 5847 5847 5846 5846 5845 5844 5843 5842 5841 5840 5839 5838 5837 5836 5835 5834 5834 5833 5831 5829 5827 5826 5825 5824 5823 5822 5821 5819 5817 5816 5813 5811 5810 5808 5806 5804 5802 5799 5797 5795 5792 5789 5786 5783 5780 5778 5775 5772 5769 5765 5762 5758 5755 5751 5748 5745 5742 5739
5856 5856 5856 5855 5855 5855 5854 5854 5853 5853 5852 5852 5852 5851 5850 5851 5850 5849 5848 5848 5848 5848 5849 5849 5850 5850 5847 5848 5849 5848 5848 5848 5847 5847 5846 5845 5844 5843 5842 5841 5840 5839 5838 5837 5836 5835 5834 5833 5831 5828 5827 5826 5825 5824 5823 5822 5819 5817 5815 5813 5811 5810 5808 5807 5805 5803 5800 5798 5795 5792 5790 5787 5784 5781 5778 5776 5773 5770 5766 5763 5760 5756 5752 5749 5746 5743 5740 5737
5858 5858 5858 5857 5857 5857 5856 5856 5855 5855 5854 5854 5853 5852 5852 5853 5852 5851 5850 5850 5849 5850 5851 5851 5851 5850 5848 5849 5850 5849 5849 5849 5848 5848 5847 5846 5845 5844 5843 5842 5841 5840 5839 5838 5836 5835 5834 5833 5830 5828 5828 5827 5826 5825 5822 5820 5817 5815 5813 5812 5811 5809 5808 5806 5804 5801 5799 5796 5793 5790 5788 5785 5782 5779 5777 5774 5771 5767 5764 5761 5757 5754 5750 5747 5744 5741 5738 5736
5860 5860 5860 5859 5859 5859 5858 5858 5857 5856 5856 5855 5855 5854 5854 5854 5854 5853 5851 5851 5851 5852 5853 5852 5851 5851 5850 5851 5852 5851 5851 5850 5849 5848 5847 5846 5845 5844 5844 5843 5842 5841 5839 5838 5837 5836 5835 5832 5830 5830 5828 5826 5824 5822 5820 5818 5816 5815 5813 5812 5810 5809 5807 5805 5803 5800 5797 5794 5791 5789 5786 5783 5781 5778 5775 5772 5769 5766 5762 5759 5755 5751 5748 5745 5742 5739 5737 5734
5862 5862 5861 5861 5861 5860 5860 5859 5858 5858 5857 5857 5856 5856 5855 5856 5856 5855 5854 5853 5853 5853 5854 5853 5852 5852 5853 5854 5853 5852 5852 5851 5850 5849 5848 5847 5846 5845 5844 5843 5842 5841 5840 5839 5838 5836 5834 5832 5831 5829 5827 5825 5823 5821 5820 5818 5817 5815 5813 5812 5810 5808 5806 5804 5801 5798 5795 5793 5790 5787 5784 5782 5779 5776 5773 5770 5767 5764 5760 5757 5753 5750 5746 5744 5741 5738 5735 5732
5863 5863 5863 5862 5862 5862 5861 5860 5860 5859 5859 5858 5858 5857 5857 5858 5858 5857 5856 5855 5854 5855 5855 5855 5854 5854 5855 5855 5854 5853 5852 5852 5851 5850 5849 5848 5847 5846 5845 5844 5843 5842 5841 5840 5838 5836 5834 5832 5830 5828 5827 5825 5823 5822 5820 5818 5817 5815 5813 5811 5810 5807 5805 5802 5800 5797 5794 5792 5789 5786 5784 5781 5778 5775 5772 5769 5766 5762 5758 5755 5751 5748 5745 5742 5739 5736 5733 5731
5865 5864 5864 5864 5863 5863 5863 5862 5862 5861 5861 5860 5860 5860 5859 5859 5859 5858 5857 5855 5855 5856 5857 5856 5856 5857 5857 5856 5855 5854 5853 5852 5852 5851 5850 5849 5848 5846 5845 5844 5843 5842 5841 5839 5837 5836 5834 5832 5830 5829 5827 5825 5823 5822 5820 5818 5817 5815 5813 5811 5809 5806 5804 5802 5799 5796 5794 5791 5789 5786 5783 5780 5777 5774 5771 5767 5764 5760 5757 5753 5750 5746 5743 5740 5737 5734 5732 5729
5866 5866 5865 5865 5865 5864 5864 5864 5863 5863 5862 5862 5862 5861 5861 5860 5860 5859 5857 5857 5858 5858 5858 5858 5858 5858 5857 5856 5855 5855 5854 5854 5853 5852 5850 5849 5848 5847 5846 5845 5844 5843 5841 5839 5838 5836 5834 5833 5831 5830 5827 5825 5823 5822 5820 5819 5817 5815 5813 5811 5808 5806 5804 5801 5799 5796 5794 5791 5788 5786 5782 5779 5776 5773 5770 5766 5762 5759 5755 5751 5748 5744 5741 5738 5736 5733 5730 5727
5868 5867 5867 5867 5866 5866 5865 5865 5865 5864 5864 5863 5863 5863 5862 5862 5861 5860 5860 5860 5860 5859 5859 5859 5859 5858 5858 5857 5856 5856 5856 5855 5853 5852 5851 5850 5849 5848 5847 5846 5844 5843 5841 5840 5838 5837 5835 5834 5832 5830 5827 5825 5824 5822 5821 5819 5817 5815 5813 5810 5808 5805 5803 5801 5798 5796 5793 5791 5788 5785 5782 5778 5775 5772 5768 5765 5761 5757 5753 5750 5746 5743 5739 5737 5734 5731 5728 5726
5869 5869 5869 5868 5868 5867 5867 5866 5866 5866 5865 5865 5864 5864 5864 5863 5863 5862 5862 5861 5861 5861 5860 5860 5860 5859 5859 5858 5858 5857 5856 5855 5854 5853 5852 5851 5850 5849 5848 5846 5845 5843 5842 5841 5839 5838 5836 5834 5832 5830 5827 5826 5824 5823 5821 5819 5817 5814 5812 5809 5807 5805 5803 5801 5798 5795 5792 5790 5787 5784 5781 5777 5774 5771 5767 5763 5760 5756 5752 5748 5744 5741 5737 5735 5732 5729 5727 5724
5871 5870 5870 5870 5869 5869 5868 5868 5867 5867 5866 5866 5866 5865 5865 5864 5864 5863 5862 5862 5862 5862 5861 5861 5861 5860 5859 5859 5858 5857 5857 5856 5855 5854 5853 5852 5850 5849 5848 5846 5845 5844 5843 5841 5839 5838 5836 5834 5832 5830 5828 5827 5825 5823 5821 5819 5816 5814 5811 5809 5806 5804 5802 5800 5798 5795 5792 5789 5787 5784 5781 5777 5773 5770 5766 5762 5758 5754 5751 5747 5744 5740 5736 5733 5731 5728 5726 5723
5872 5871 5871 5871 5871 5870 5870 5869 5869 5868 5867 5867 5867 5866 5865 5865 5864 5864 5863 5863 5862 5862 5862 5861 5861 5860 5860 5859 5858 5858 5857 5856 5855 5854 5853 5852 5850 5849 5847 5846 5845 5844 5843 5841 5839 5838 5836 5834 5832 5831 5829 5826 5824 5822 5820 5818 5816 5813 5811 5809 5806 5804 5802 5800 5797 5794 5791 5789 5786 5782 5779 5776 5772 5768 5765 5761 5757 5754 5750 5746 5742 5739 5736 5733 5730 5727 5725 5722
5873 5873 5873 5872 5872 5872 5871 5870 5870 5869 5869 5868 5867 5867 5866 5865 5865 5864 5864 5863 5863 5863 5862 5861 5861 5860 5860 5859 5858 5858 5857 5856 5856 5855 5853 5852 5850 5849 5848 5847 5846 5844 5843 5841 5839 5838 5836 5834 5832 5830 5828 5826 5824 5822 5820 5818 5816 5814 5811 5809 5806 5804 5802 5799 5797 5794 5790 5786 5783 5780 5777 5774 5770 5767 5763 5759 5756 5753 5749 5745 5742 5738 5735 5732 5729 5726 5723 5721
5874 5874 5874 5873 5873 5872 5872 5871 5871 5870 5870 5869 5868 5867 5867 5866 5865 5865 5865 5864 5864 5863 5862 5862 5861 5861 5860 5859 5858 5858 5857 5857 5856 5855 5854 5852 5851 5849 5848 5847 5846 5844 5843 5841 5839 5838 5836 5834 5833 5830 5828 5826 5823 5821 5820 5818 5816 5814 5811 5809 5807 5804 5802 5799 5796 5793 5790 5786 5784 5780 5776 5772 5769 5765 5761 5757 5754 5751 5748 5744 5741 5737 5733 5730 5727 5725 5722 5719
5875 5875 5875 5874 5874 5873 5873 5872 5872 5871 5870 5870 5869 5868 5867 5867 5866 5865 5865 5865 5864 5863 5863 5862 5862 5861 5860 5859 5859 5858 5858 5857 5856 5855 5854 5853 5851 5850 5849 5847 5846 5844 5843 5841 5840 5838 5836 5834 5832 5830 5828 5825 5823 5821 5820 5818 5816 5813 5811 5809 5807 5804 5802 5799 5796 5792 5789 5786 5783 5779 5775 5771 5768 5764 5760 5756 5753 5750 5746 5742 5738 5735 5732 5729 5726 5724 5721 5718
5876 5876 5875 5875 5874 5874 5873 5873 5872 5872 5871 5870 5870 5869 5868 5867 5867 5866 5866 5865 5864 5864 5863 5862 5862 5861 5860 5860 5859 5859 5859 5858 5857 5856 5854 5853 5851 5850 5849 5848 5846 5845 5843 5841 5840 5838 5836 5834 5832 5830 5827 5825 5823 5821 5820 5818 5815 5813 5811 5809 5807 5805 5802 5800 5796 5792 5789 5785 5781 5777 5774 5771 5768 5764 5760 5756 5752 5749 5744 5741 5738 5734 5731 5728 5726 5723 5720 5717
5877 5876 5876 5876 5875 5875 5874 5873 5873 5872 5872 5871 5870 5869 5869 5868 5867 5867 5866 5865 5865 5864 5863 5863 5862 5861 5861 5860 5860 5859 5858 5857 5856 5855 5854 5853 5852 5851 5849 5848 5846 5845 5843 5841 5840 5838 5836 5834 5831 5829 5827 5825 5823 5821 5819 5817 5815 5813 5811 5809 5807 5805 5803 5800 5796 5792 5788 5784 5780 5776 5773 5770 5766 5762 5758 5755 5751 5747 5744 5740 5737 5734 5730 5728 5725 5722 5719 5716
5877 5877 5876 5876 5875 5875 5874 5874 5873 5872 5872 5871 5871 5870 5869 5868 5868 5867 5866 5866 5865 5864 5863 5863 5862 5862 5861 5860 5860 5859 5859 5858 5857 5856 5854 5853 5852 5851 5849 5848 5846 5845 5843 5841 5839 5837 5835 5833 5831 5829 5827 5825 5822 5820 5819 5817 5815 5813 5811 5809 5807 5805 5803 5800 5796 5791 5787 5782 5779 5776 5773 5769 5765 5761 5758 5754 5750 5747 5744 5740 5736 5733 5730 5727 5724 5721 5718 5715
5877 5877 5876 5876 5876 5875 5874 5874 5873 5873 5872 5871 5871 5870 5870 5869 5868 5867 5866 5866 5865 5864 5864 5863 5862 5862 5861 5861 5860 5860 5859 5858 5857 5856 5854 5853 5852 5850 5849 5847 5846 5845 5843 5841 5839 5837 5835 5833 5831 5829 5826 5824 5822 5820 5818 5817 5815 5813 5811 5809 5807 5805 5802 5799 5795 5791 5787 5783 5779 5776 5773 5769 5766 5762 5758 5754 5750 5747 5743 5740 5736 5733 5729 5726 5723 5720 5717 5714
5877 5877 5876 5876 5876 5875 5874 5874 5873 5873 5872 5872 5871 5870 5869 5869 5868 5867 5866 5865 5865 5864 5864 5863 5862 5862 5861 5861 5860 5859 5858 5858 5856 5855 5854 5852 5851 5850 5848 5847 5846 5844 5842 5841 5839 5837 5835 5833 5831 5828 5826 5824 5822 5820 5818 5817 5815 5813 5811 5809 5806 5804 5801 5798 5795 5791 5788 5784 5780 5776 5773 5769 5765 5762 5758 5754 5751 5746 5742 5739 5736 5732 5729 5726 5723 5720 5717 5714
5877 5877 5876 5876 5876 5875 5875 5874 5873 5873 5872 5871 5871 5870 5869 5868 5868 5867 5866 5865 5865 5864 5863 5863 5862 5861 5861 5860 5860 5859 5858 5857 5856 5855 5853 5852 5851 5850 5848 5847 5845 5843 5842 5840 5838 5836 5834 5832 5830 5828 5826 5824 5821 5820 5818 5816 5814 5812 5810 5808 5806 5803 5800 5797 5794 5791 5788 5784 5780 5777 5773 5769 5765 5762 5758 5754 5750 5746 5742 5739 5736 5733 5730 5726 5723 5720 5717 5713
5877 5876 5876 5876 5875 5875 5874 5874 5873 5872 5872 5871 5870 5870 5869 5868 5867 5866 5866 5865 5864 5864 5863 5862 5862 5861 5861 5860 5859 5858 5857 5856 5855 5854 5853 5852 5850 5849 5848 5846 5844 5843 5841 5840 5838 5836 5834 5832 5830 5827 5825 5823 5821 5819 5817 5815 5813 5811 5809 5807 5805 5803 5800 5797 5794 5791 5788 5785 5781 5776 5773 5769 5765 5762 5758 5754 5750 5747 5744 5741 5737 5733 5730 5726 5723 5719 5716 5712
5876 5876 5876 5875 5875 5875 5874 5873 5873 5872 5871 5871 5870 5869 5868 5868 5867 5866 5865 5865 5864 5863 5863 5862 5861 5861 5860 5859 5858 5858 5857 5856 5855 5854 5852 5851 5850 5849 5847 5846 5844 5843 5841 5840 5838 5836 5834 5832 5829 5827 5824 5822 5821 5819 5817 5814 5812 5810 5809 5807 5805 5803 5800 5797 5794 5792 5788 5785 5780 5776 5772 5768 5764 5761 5758 5754 5750 5747 5744 5740 5736 5733 5729 5726 5722 5719 5715 5712
5875 5875 5875 5874 5874 5874 5873 5873 5872 5871 5871 5870 5869 5869 5868 5867 5866 5866 5865 5864 5863 5863 5862 5861 5861 5860 5859 5859 5858 5857 5856 5855 5854 5853 5852 5851 5849 5848 5847 5846 5844 5843 5841 5840 5838 5836 5834 5832 5829 5827 5824 5822 5820 5819 5816 5814 5812 5810 5808 5806 5804 5802 5800 5798 5795 5791 5788 5784 5780 5776 5771 5768 5764 5761 5757 5754 5750 5746 5742 5738 5735 5731 5728 5725 5721 5718 5714 5711
5874 5874 5874 5873 5873 5873 5872 5872 5871 5870 5870 5869 5869 5868 5867 5866 5866 5865 5864 5864 5863 5862 5862 5861 5860 5860 5859 5858 5857 5856 5856 5855 5854 5853 5852 5850 5849 5848 5846 5845 5844 5842 5841 5839 5838 5836 5834 5832 5829 5826 5824 5822 5820 5818 5816 5814 5811 5809 5807 5805 5803 5801 5799 5797 5794 5791 5788 5784 5781 5777 5772 5769 5765 5761 5757 5753 5749 5745 5741 5738 5734 5731 5727 5724 5720 5717 5713 5710
5873 5873 5872 5872 5872 5871 5871 5870 5870 5869 5868 5868 5867 5867 5866 5865 5865 5864 5864 5863 5862 5862 5861 5861 5860 5859 5858 5858 5857 5856 5855 5854 5853 5852 5851 5850 5849 5847 5846 5845 5844 5842 5841 5839 5837 5836 5834 5831 5829 5827 5824 5821 5820 5818 5816 5813 5811 5808 5806 5804 5802 5800 5798 5796 5793 5790 5787 5784 5781 5777 5773 5769 5764 5760 5756 5753 5749 5745 5741 5737 5734 5730 5727 5723 5720 5716 5712 5709
5871 5871 5871 5871 5870 5870 5869 5869 5868 5867 5867 5866 5866 5865 5865 5864 5864 5863 5863 5862 5862 5861 5860 5860 5859 5858 5858 5857 5856 5856 5855 5854 5853 5852 5851 5849 5848 5847 5846 5845 5843 5842 5840 5839 5837 5836 5834 5831 5829 5827 5824 5821 5819 5818 5816 5813 5811 5808 5805 5803 5801 5799 5797 5795 5793 5790 5787 5783 5779 5776 5772 5768 5764 5760 5757 5753 5748 5745 5741 5737 5734 5730 5726 5722 5719 5715 5711 5707
5870 5869 5869 5869 5868 5868 5868 5867 5866 5866 5865 5865 5864 5864 5864 5863 5863 5862 5862 5862 5861 5860 5860 5859 5859 5858 5857 5857 5856 5855 5855 5854 5853 5851 5850 5849 5847 5846 5845 5844 5843 5841 5840 5838 5837 5835 5833 5831 5829 5826 5824 5821 5819 5817 5815 5813 5810 5807 5805 5803 5801 5798 5796 5794 5792 5789 5786 5783 5779 5775 5772 5768 5764 5761 5757 5752 5748 5744 5741 5737 5732 5728 5725 5721 5718 5714 5710 5706
5868 5868 5868 5867 5867 5866 5866 5865 5865 5864 5864 5863 5863 5863 5862 5862 5861 5861 5861 5861 5860 5860 5859 5858 5858 5857 5857 5856 5855 5855 5854 5853 5852 5851 5850 5848 5847 5846 5845 5844 5842 5840 5839 5837 5836 5834 5833 5831 5829 5826 5824 5821 5819 5817 5815 5812 5810 5807 5804 5803 5800 5798 5795 5793 5791 5789 5786 5783 5779 5776 5772 5769 5765 5761 5756 5752 5748 5744 5740 5736 5732 5728 5725 5721 5717 5713 5709 5705
5866 5866 5866 5866 5865 5865 5865 5864 5864 5863 5862 5862 5861 5861 5861 5861 5860 5860 5860 5859 5859 5859 5858 5858 5857 5856 5856 5855 5855 5854 5853 5852 5851 5850 5849 5848 5846 5845 5844 5843 5841 5840 5838 5836 5835 5834 5832 5831 5828 5826 5823 5821 5819 5817 5814 5812 5809 5806 5804 5802 5800 5797 5794 5792 5790 5788 5785 5782 5779 5776 5772 5768 5764 5760 5756 5752 5747 5743 5740 5736 5733 5728 5724 5720 5716 5712 5708 5704
5865 5865 5865 5865 5864 5864 5864 5863 5863 5862 5861 5861 5860 5860 5860 5860 5859 5859 5859 5858 5858 5858 5857 5857 5856 5855 5855 5854 5854 5853 5853 5852 5851 5850 5849 5847 5846 5844 5843 5842 5840 5839 5837 5835 5834 5833 5832 5830 5828 5826 5824 5821 5819 5816 5814 5811 5808 5805 5803 5801 5799 5796 5794 5791 5788 5786 5784 5781 5778 5775 5771 5767 5763 5759 5755 5751 5747 5743 5739 5735 5730 5726 5722 5718 5715 5711 5707 5703
5864 5864 5864 5863 5863 5863 5863 5862 5862 5861 5861 5860 5859 5859 5859 5859 5858 5858 5858 5857 5857 5857 5856 5856 5855 5855 5854 5854 5854 5853 5853 5852 5851 5849 5848 5846 5845 5843 5842 5841 5840 5838 5836 5835 5833 5832 5831 5830 5828 5825 5823 5821 5818 5816 5813 5811 5808 5805 5802 5801 5799 5796 5793 5791 5788 5786 5784 5781 5777 5774 5770 5766 5762 5758 5755 5751 5747 5743 5738 5734 5729 5725 5721 5717 5713 5710 5706 5702
5863 5863 5863 5863 5862 5862 5862 5862 5861 5861 5860 5859 5859 5858 5858 5858 5858 5857 5857 5857 5856 5856 5855 5855 5854 5854 5854 5854 5853 5853 5852 5851 5850 5848 5847 5846 5844 5843 5842 5840 5839 5837 5836 5834 5832 5831 5830 5829 5827 5825 5823 5820 5818 5815 5813 5810 5807 5804 5801 5800 5798 5795 5792 5790 5787 5785 5783 5780 5777 5773 5770 5767 5763 5759 5755 5751 5747 5743 5738 5734 5730 5725 5721 5717 5713 5709 5705 5701
5862 5862 5862 5862 5862 5861 5861 5861 5860 5860 5859 5859 5858 5858 5857 5857 5857 5856 5856 5856 5855 5855 5854 5854 5854 5853 5853 5853 5852 5852 5851 5850 5849 5847 5846 5845 5843 5842 5841 5840 5838 5837 5835 5833 5832 5830 5829 5827 5825 5824 5822 5820 5817 5815 5812 5810 5807 5804 5801 5798 5796 5794 5792 5789 5786 5783 5781 5779 5776 5773 5770 5767 5763 5759 5755 5751 5747 5743 5739 5735 5730 5726 5721 5717 5712 5708 5703 5700
5861 5861 5861 5861 5861 5860 5860 5860 5859 5859 5859 5858 5857 5857 5857 5856 5856 5855 5855 5854 5854 5853 5853 5853 5853 5853 5852 5852 5851 5851 5850 5849 5848 5846 5845 5844 5843 5841 5840 5839 5838 5836 5834 5833 5831 5830 5828 5826 5824 5822 5822 5820 5817 5814 5812 5809 5806 5803 5800 5797 5795 5793 5791 5788 5785 5782 5780 5777 5774 5771 5768 5765 5762 5758 5754 5750 5747 5743 5739 5735 5731 5726 5721 5716 5712 5707 5703 5699
5860 5860 5860 5860 5859 5859 5859 5859 5858 5858 5857 5857 5856 5856 5855 5855 5855 5854 5854 5853 5853 5852 5852 5852 5852 5852 5851 5851 5850 5850 5849 5848 5847 5845 5844 5843 5842 5840 5839 5838 5837 5835 5833 5832 5831 5829 5827 5825 5823 5821 5820 5819 5816 5813 5811 5808 5805 5802 5799 5797 5794 5792 5790 5787 5784 5781 5779 5776 5773 5770 5766 5763 5760 5757 5753 5749 5745 5742 5738 5734 5730 5725 5721 5716 5712 5707 5702 5697
5858 5858 5858 5858 5858 5858 5858 5858 5857 5857 5856 5856 5855 5855 5854 5854 5853 5853 5852 5852 5851 5851 5851 5851 5851 5851 5850 5850 5849 5848 5847 5846 5845 5844 5843 5842 5840 5839 5838 5837 5835 5834 5832 5831 5830 5828 5826 5825 5823 5820 5818 5817 5816 5813 5810 5807 5805 5801 5798 5795 5793 5791 5789 5786 5784 5780 5777 5775 5771 5768 5765 5762 5759 5756 5752 5749 5745 5741 5737 5733 5729 5725 5721 5716 5711 5706 5701 5696
5857 5857 5857 5857 5857 5857 5856 5856 5856 5855 5855 5854 5854 5853 5853 5852 5852 5851 5851 5850 5850 5850 5850 5850 5849 5849 5849 5848 5848 5847 5846 5845 5844 5843 5842 5840 5839 5838 5837 5835 5834 5832 5831 5830 5829 5827 5825 5823 5822 5820 5818 5816 5815 5812 5809 5806 5804 5801 5797 5794 5792 5790 5788 5785 5783 5780 5776 5774 5771 5767 5764 5761 5758 5755 5752 5748 5745 5741 5736 5732 5728 5723 5719 5715 5711 5705 5700 5695
5855 5855 5855 5855 5855 5855 5854 5854 5854 5854 5854 5853 5852 5852 5851 5851 5850 5850 5849 5849 5849 5848 5848 5848 5848 5848 5847 5847 5846 5846 5845 5844 5843 5842 5840 5839 5838 5837 5835 5834 5833 5831 5830 5828 5827 5826 5823 5822 5820 5819 5817 5815 5813 5812 5809 5806 5803 5800 5796 5793 5791 5789 5786 5784 5781 5779 5775 5772 5770 5766 5763 5759 5756 5753 5750 5746 5742 5739 5735 5731 5727 5723 5718 5714 5710 5705 5700 5694